Location: Newark
(45.5000°N, 11.4167°E)
Time: 17:22:23
(UTC+00:00)

Vanguard 2 - Pass Details

Date: 22 August 2019
Orbit: 554 x 2937 km, 32.9° (Epoch: 23 September)

Event Time Altitude Azimuth Distance (km) Brightness Sun altitude
Rises 17:52:31 0° 267° (W) 5,108 13.5 2.3°
Reaches altitude 10° 17:56:28 10° 254° (WSW) 4,474 12.6 1.6°
Maximum altitude 18:05:49 24° 208° (SSW) 4,130 11.4 0.0°
Drops below altitude 10° 18:17:31 10° 164° (SSE) 5,668 11.6 -1.9°
Sets 18:23:32 0° 153° (SSE) 6,776 11.9 -2.9°
